Volver al catálogo

FENGYUN 1C DEB

ActivoSSO
NORAD 30873·DEBRIS·🇨🇳 China

Lanzado May 10, 1999 desde Taiyuan Satellite Launch Center

Loading…

Próximos Pases (próximas 24 horas)

TLE

ActualizadoSource: Space-Track

Época: Sep 14, 2026, 22:51 UTC

1 30873U 99025AXK 26257.95257135  .00000175  00000-0  98186-4 0  9994
2 30873  98.6223 255.7706 0107775 210.8867 148.5941 14.19347826 11115

Sigue FENGYUN 1C DEB en tiempo real con AllMySat

Download on the App Store